Home   Weather   Kamp-Lintfort   Past weeks

Flag for Germany Past Weather in Kamp-Lintfort, North Rhine-Westphalia, Germany — Yesterday and Last 2 Weeks

Now
72 °F

Passing clouds.


Feels Like: 77 °F
Forecast: 55 / 70 °F
Wind: 7 mph from Southwest

Location: Duesseldorf

Current Time: Sep 27, 2016 at 3:53:11 PM

Latest Report: Sep 27, 2016 at 3:20 PM


Visibility: N/A

Pressure: 30.27 "Hg

Humidity: 47%

Dew Point: 50 °F

Location of Kamp-LintfortLocation

Past Weather in Kamp-Lintfort — Graph

°F

Kamp-Lintfort Temperature Yesterday

Maximum temperature yesterday: 70 °F (at 3:50 PM)
Minimum temperature yesterday: 50 °F (at 6:50 AM)
Average temperature yesterday: 60 °F

High & Low Weather Summary for the Past Weeks

 TemperatureHumidityPressure
High90 °F (Sep 13, 2:20 PM)100% (Sep 16, 2:20 AM)30.33 "Hg (Sep 16, 2:20 AM)
Low45 °F (Sep 27, 7:20 AM)27% (Sep 14, 3:50 PM)29.77 "Hg (Sep 15, 4:20 PM)
Average65 °F70%30.06 "Hg
* Reported Sep 12 2:20 PM — Sep 27 2:20 PM, Kamp-Lintfort, Weather by CustomWeather, © 2016

Note: Actual official high and low records may vary slightly from our data, if they occured in-between our weather recording intervals... More about our weather records

Advertising

Kamp-Lintfort Weather History for the Previous 24 Hours

Scroll right to see more
 ConditionsComfort  
Time TempWeatherWind HumidityBarometerVisibility
2:20 PM
Tue, Sep 27
70 °FPassing clouds.8 mph50%30.30 "HgN/A
1:50 PM70 °FPassing clouds.7 mph53%30.30 "HgN/A
1:20 PM68 °FSunny.2 mph53%30.30 "Hg10 mi
12:50 PM68 °FSunny.3 mph53%30.30 "Hg10 mi
12:20 PM66 °FSunny.2 mph60%30.30 "Hg10 mi
11:50 AM64 °FSunny.3 mph64%30.33 "Hg10 mi
11:20 AM64 °FPassing clouds.2 mph64%30.30 "HgN/A
10:50 AM63 °FPassing clouds.2 mph68%30.30 "HgN/A
10:20 AM59 °FPassing clouds.2 mph77%30.30 "HgN/A
9:50 AM57 °FPassing clouds.3 mph82%30.30 "HgN/A
9:20 AM54 °FPassing clouds.3 mph94%30.30 "HgN/A
8:50 AM50 °FFog.2 mph94%30.30 "HgN/A
8:20 AM46 °FLight fog.No wind100%30.30 "HgN/A
7:50 AM48 °FPassing clouds.1 mph94%30.27 "HgN/A
7:20 AM45 °FFog.1 mph100%30.27 "HgN/A
6:50 AM46 °FFog.1 mph100%30.27 "HgN/A
6:20 AM48 °FClear.2 mph100%30.27 "Hg10 mi
5:50 AM48 °FFog.2 mph94%30.27 "HgN/A
5:20 AM48 °FPartly cloudy.2 mph100%30.27 "HgN/A
4:50 AM48 °FFog.1 mph94%30.24 "HgN/A
4:20 AM48 °FFog.1 mph94%30.24 "HgN/A
3:50 AM48 °FClear.1 mph100%30.24 "Hg10 mi
3:20 AM48 °FClear.1 mph100%30.24 "Hg10 mi
2:50 AM50 °FClear.2 mph94%30.24 "Hg10 mi
2:20 AM52 °FClear.2 mph94%30.24 "Hg10 mi
1:50 AM52 °FClear.2 mph94%30.24 "Hg10 mi
1:20 AM52 °FClear.1 mph88%30.24 "Hg10 mi
12:50 AM52 °FClear.1 mph94%30.24 "Hg10 mi
12:20 AM52 °FClear.2 mph88%30.24 "Hg10 mi
11:50 PM
Mon, Sep 26
52 °FClear.1 mph94%30.24 "Hg10 mi
11:20 PM52 °FClear.2 mph88%30.24 "Hg10 mi
10:50 PM54 °FClear.3 mph82%30.24 "Hg10 mi
10:20 PM55 °FClear.3 mph77%30.24 "Hg10 mi
9:50 PM55 °FPassing clouds.3 mph77%30.24 "HgN/A
9:20 PM57 °FPassing clouds.3 mph72%30.24 "HgN/A
8:50 PM59 °FPassing clouds.5 mph68%30.24 "HgN/A
8:20 PM61 °FClear.7 mph63%30.24 "Hg10 mi
7:50 PM63 °FPassing clouds.5 mph56%30.21 "HgN/A
7:20 PM63 °FPassing clouds.6 mph56%30.21 "HgN/A
6:50 PM64 °FPartly sunny.6 mph56%30.21 "HgN/A
6:20 PM66 °FPartly sunny.5 mph52%30.21 "HgN/A
5:50 PM66 °FPartly sunny.7 mph49%30.21 "HgN/A
5:20 PM66 °FPartly sunny.6 mph52%30.21 "HgN/A
4:50 PM68 °FPartly sunny.6 mph49%30.21 "HgN/A
4:20 PM68 °FScattered clouds.6 mph49%30.21 "HgN/A
3:50 PM70 °FScattered clouds.3 mph46%30.21 "HgN/A
3:20 PM66 °FScattered clouds.3 mph49%30.21 "HgN/A
Weather by CustomWeather, © 2016

See weather overviewHow to use our weather pages